Tracking 22441 objects as of 28-Feb-2021
HD Live streaming from Space Station
objects crossing your sky now

FREGAT DEB

Track FREGAT DEB now!
10-day predictions


NORAD ID: 46522
Int'l Code: 2011-037MA
Perigee: 567.9 km
Apogee: 3,678.2 km
Inclination: 51.4 °
Period: 129.8 minutes
Semi major axis: 8494 km
RCS: Unknown
Launch date: July 18, 2011
Source: Commonwealth of Independent States (former USSR) (CIS)
Launch site: TYURATAM MISSILE AND SPACE COMPLEX (TTMTR)

Note: This is SATELLITE DEBRIS
aabbcc
Your satellite tracking list
Your tracking list is empty




NASA's NSSDC Master Catalog

Two Line Element Set (TLE):
1 46522U 11037MA  21025.93904723  .00218466  00000-0  14478+0 0  9998
2 46522  51.4444 219.4942 1830853 187.8642 168.9272 11.08992169 16130
Source of the keplerian elements: AFSPC